STARLINK-1597, 46142

Orbit data source: Space-Track

STARLINK-1597, 46142 is a payload satellite owned by SpaceX/Seattle (US) in LEO that was launched on Tue, 18 Aug 2020 UTC via an FALCON 9 launch vehicle from the Air Force Eastern Test Range (AFETR). Payload-class satellites include a variety of spacecraft equipped with specific instruments for various scientific and technological missions. These include communications satellites like Starlink; space stations such as the ISS; scientific satellites like the Hubble; Earth observation satellites from companies like Planet Labs, Umbra, and HawkEye 360; GPS; miniature CubeSats for education and research; and military/defense satellites.

Loading next visibility...
Identifier
46142, 2020-057AB
Orbit
LEO
Last TLE update
12 hours ago
Origin
Manufacturer
SpaceX/Seattle
Mission
Operational Commercial Communications
Bus & Motor
STARLINK, Unknown motor
Mass
260 kg wet, ~248 kg dry
Launch date (UTC)
2020-08-18 (5 years ago)
Launch vehicle
FALCON 9
Launch site
Air Force Eastern Test Range (AFETR)
Object type
Payload
Rocket body
Debris
Shape & HBR
Box + 1 Pan, 8.86 m
Radar Cross Section
13.562 m², Large (>1 m²)

Expand to show TLE details & history

TLE from 12 hours ago
0 STARLINK-1597
1 46142U 20057AB  25189.82017165  .00000091  00000-0  24981-4 0  9994
2 46142  53.0562 331.3920 0001271  83.8369 276.2765 15.06394210269305
Epoch: 2025-07-08T19:41Z
TLE epoch observation values (Epoch: 2025-07-08T19:41:02.83Z)
Latitude
-0.00001°
Longitude
109.12053°
Altitude
548.013 km
Speed
7.589 km/s
True Right ascension
22h 05m 34s
True Declination
0° 00' 00"
Sunlit
Object was in full shadow at epoch
Visualization orbit readout
Latitude
46.97367°
Longitude
-126.31206°
Altitude
551.585 km
Speed
7.592 km/s
Apparent Right ascension
06h 57m 15s
Apparent Declination
5° 49' 15"
Sunlit
Object is in daylight
Visualization observer readout
Local Sidereal Time
19:29:33
Azimuth
11.139° NNE
Elevation
-43.661°
Doppler factor
1
Orbital elements
Apogee altitude
548.38 km
Perigee altitude
546.62 km
Semi-major axis
6,925.637 km
Eccentricity
0.00013
Inclination
53.0562°
RAAN
331.392°
Arg. of periapsis
83.8369°
True anomaly
Unknown
Mean anomaly
276.2765°
Eccentric anomaly
Unknown
Mean motion
3.76577 °/min
Orbital period
95.6 mins
BSTAR
0.000024981
Loading maneuver chart data...
Loading SW <> Apogee altitude chart data...
Loading historical data...
Loading historical data...
Loading historical data...
Loading historical data...
Loading historical data...
Loading historical data...
Loading historical data...

STARLINK-1597 Visibility forecast

Observer location: undefined°, undefined°

Span
Click to sort rows by Start time (UTC) header in descending order
Start Az.
Max El. time (UTC)
Max El. Az.
Max El.
End time (UTC)
End Az.
7 mins2025-07-09 11:46:05.030Z208.035° SW2025-07-09 11:49:05.030Z156.048° SSE36.641°2025-07-09 11:53:05.030Z60.856° ENE
5 mins2025-07-09 13:27:05.030Z286.649° WNW2025-07-09 13:29:05.030Z330.538° NNW25.674°2025-07-09 13:32:05.030Z28.395° NE
4 mins2025-07-09 16:49:05.030Z348.459° N2025-07-09 16:51:05.030Z22.914° NE15.718°2025-07-09 16:53:05.030Z53.338° ENE
6 mins2025-07-09 18:28:05.030Z322.914° NNW2025-07-09 18:31:05.030Z43.369° NE38.086°2025-07-09 18:34:05.030Z108.862° ESE
5 mins2025-07-09 20:08:05.030Z270.942° WNW2025-07-09 20:10:05.030Z233.894° WSW20.602°2025-07-09 20:13:05.030Z182.747° SSW
|